TimeCST,TemperatureF,Dew PointF,Humidity,Sea Level PressureIn,VisibilityMPH,Wind Direction,Wind SpeedMPH,Gust SpeedMPH,PrecipitationIn,Events,Conditions,WindDirDegrees,DateUTC
12:15 AM,29.7,25.2,83,30.21,7.0,South,5.8,-,N/A,,Clear,170,2013-01-18 06:15:00
12:35 AM,30.0,25.5,83,30.20,7.0,South,6.9,-,N/A,,Clear,180,2013-01-18 06:35:00
12:55 AM,31.1,26.2,82,30.19,7.0,South,8.1,-,N/A,,Clear,170,2013-01-18 06:55:00
1:15 AM,32.4,27.1,81,30.17,10.0,South,10.4,-,N/A,,Clear,180,2013-01-18 07:15:00
1:35 AM,33.1,28.0,82,30.16,7.0,South,9.2,-,N/A,,Clear,180,2013-01-18 07:35:00
1:55 AM,33.6,28.0,80,30.15,7.0,SSW,10.4,-,N/A,,Clear,200,2013-01-18 07:55:00
2:15 AM,34.7,28.4,78,30.15,7.0,SSW,13.8,-,N/A,,Clear,200,2013-01-18 08:15:00
2:35 AM,34.7,28.4,78,30.14,7.0,SSW,13.8,18.4,N/A,,Clear,200,2013-01-18 08:35:00
2:55 AM,34.7,28.4,78,30.13,7.0,SSW,12.7,-,N/A,,Clear,200,2013-01-18 08:55:00
3:15 AM,34.7,28.4,78,30.12,7.0,SSW,10.4,-,N/A,,Clear,200,2013-01-18 09:15:00
3:35 AM,34.7,28.2,77,30.11,7.0,SSW,11.5,-,N/A,,Clear,200,2013-01-18 09:35:00
3:55 AM,34.7,28.0,77,30.08,7.0,SSW,11.5,-,N/A,,Clear,200,2013-01-18 09:55:00
4:15 AM,34.7,28.0,77,30.05,10.0,SSW,12.7,-,N/A,,Clear,200,2013-01-18 10:15:00
4:35 AM,34.9,27.7,75,30.03,10.0,South,8.1,-,N/A,,Clear,180,2013-01-18 10:35:00
4:55 AM,35.1,27.9,75,30.02,10.0,SSW,8.1,-,N/A,,Clear,200,2013-01-18 10:55:00
5:15 AM,36.7,28.0,71,30.01,10.0,SSW,13.8,-,N/A,,Clear,200,2013-01-18 11:15:00
5:35 AM,36.9,27.1,68,30.00,10.0,SSW,13.8,-,N/A,,Clear,200,2013-01-18 11:35:00
5:55 AM,36.9,27.1,68,30.00,10.0,South,12.7,-,N/A,,Clear,190,2013-01-18 11:55:00
6:15 AM,36.7,27.1,68,29.99,10.0,SSW,12.7,-,N/A,,Clear,200,2013-01-18 12:15:00
6:35 AM,36.3,26.6,68,29.98,10.0,SSW,10.4,-,N/A,,Clear,200,2013-01-18 12:35:00
6:55 AM,36.1,26.6,68,29.97,10.0,SSW,11.5,-,N/A,,Clear,200,2013-01-18 12:55:00
7:15 AM,36.1,26.6,68,29.97,10.0,SSW,11.5,-,N/A,,Clear,200,2013-01-18 13:15:00
7:35 AM,35.8,26.2,68,29.97,10.0,SSW,11.5,-,N/A,,Clear,200,2013-01-18 13:35:00
7:55 AM,34.5,25.5,70,29.96,10.0,SSW,5.8,-,N/A,,Clear,200,2013-01-18 13:55:00
8:15 AM,35.1,25.9,69,29.96,10.0,SSW,10.4,-,N/A,,Clear,200,2013-01-18 14:15:00
8:35 AM,35.6,26.2,69,29.95,10.0,SSW,8.1,-,N/A,,Clear,200,2013-01-18 14:35:00
8:55 AM,37.4,26.6,65,29.95,10.0,South,9.2,-,N/A,,Clear,190,2013-01-18 14:55:00
9:15 AM,38.7,27.1,63,29.94,10.0,SSW,11.5,17.3,N/A,,Clear,200,2013-01-18 15:15:00
9:35 AM,39.9,27.3,61,29.94,10.0,SSW,12.7,17.3,N/A,,Clear,210,2013-01-18 15:35:00
9:55 AM,41.0,27.3,58,29.94,10.0,SW,13.8,20.7,N/A,,Clear,220,2013-01-18 15:55:00
10:15 AM,41.9,27.3,56,29.93,10.0,SSW,17.3,21.9,N/A,,Clear,210,2013-01-18 16:15:00
10:35 AM,42.8,27.5,55,29.92,10.0,SSW,13.8,20.7,N/A,,Clear,200,2013-01-18 16:35:00
10:55 AM,44.1,27.1,51,29.92,10.0,SSW,11.5,-,N/A,,Clear,200,2013-01-18 16:55:00
11:15 AM,44.6,26.4,49,29.91,10.0,SW,13.8,17.3,N/A,,Clear,220,2013-01-18 17:15:00
11:35 AM,45.0,26.4,48,29.89,10.0,SW,12.7,21.9,N/A,,Clear,220,2013-01-18 17:35:00
11:55 AM,45.7,26.8,48,29.89,10.0,SW,11.5,20.7,N/A,,Clear,230,2013-01-18 17:55:00
12:15 PM,45.7,27.9,50,29.89,10.0,WSW,12.7,19.6,N/A,,Clear,250,2013-01-18 18:15:00
12:35 PM,46.8,28.4,49,29.87,10.0,SW,12.7,18.4,N/A,,Clear,220,2013-01-18 18:35:00
12:55 PM,47.5,28.8,48,29.86,10.0,WSW,13.8,-,N/A,,Clear,240,2013-01-18 18:55:00
1:15 PM,47.8,28.8,48,29.86,10.0,SW,16.1,-,N/A,,Clear,220,2013-01-18 19:15:00
1:35 PM,48.7,28.6,46,29.85,10.0,SW,12.7,19.6,N/A,,Clear,230,2013-01-18 19:35:00
1:55 PM,50.0,29.3,45,29.84,10.0,SW,15.0,20.7,N/A,,Clear,220,2013-01-18 19:55:00
2:15 PM,50.2,28.2,43,29.85,10.0,SW,13.8,20.7,N/A,,Clear,220,2013-01-18 20:15:00
2:35 PM,50.9,29.3,43,29.84,10.0,SW,11.5,-,N/A,,Clear,230,2013-01-18 20:35:00
2:55 PM,49.5,29.7,47,29.84,10.0,SSW,15.0,19.6,N/A,,Clear,210,2013-01-18 20:55:00
3:15 PM,49.6,30.2,47,29.84,10.0,SW,10.4,-,N/A,,Clear,220,2013-01-18 21:15:00
3:35 PM,50.9,29.8,44,29.85,10.0,SW,9.2,-,N/A,,Clear,230,2013-01-18 21:35:00
3:55 PM,50.9,30.4,45,29.85,10.0,SW,8.1,-,N/A,,Clear,230,2013-01-18 21:55:00
4:15 PM,50.5,30.0,45,29.85,10.0,SW,8.1,-,N/A,,Clear,220,2013-01-18 22:15:00
4:35 PM,49.3,30.4,48,29.86,10.0,SW,8.1,-,N/A,,Clear,220,2013-01-18 22:35:00
4:55 PM,47.7,30.4,51,29.86,10.0,SW,6.9,-,N/A,,Clear,220,2013-01-18 22:55:00
5:15 PM,44.4,30.2,57,29.86,10.0,SW,8.1,-,N/A,,Clear,220,2013-01-18 23:15:00
5:35 PM,42.1,29.7,61,29.86,10.0,SW,5.8,-,N/A,,Clear,220,2013-01-18 23:35:00
5:55 PM,40.1,30.0,67,29.87,10.0,SW,4.6,-,N/A,,Clear,230,2013-01-18 23:55:00
6:15 PM,41.2,30.0,65,29.87,10.0,SW,3.5,-,N/A,,Clear,220,2013-01-19 00:15:00
6:35 PM,41.4,30.6,65,29.87,10.0,SSW,5.8,-,N/A,,Clear,200,2013-01-19 00:35:00
6:55 PM,41.2,30.6,66,29.87,10.0,SSE,3.5,-,N/A,,Clear,160,2013-01-19 00:55:00
7:15 PM,40.5,30.2,67,29.88,10.0,Calm,Calm,-,N/A,,Clear,0,2013-01-19 01:15:00
7:35 PM,39.6,29.5,67,29.88,10.0,Calm,Calm,-,N/A,,Clear,0,2013-01-19 01:35:00
7:55 PM,37.6,29.7,73,29.87,10.0,Calm,Calm,-,N/A,,Clear,0,2013-01-19 01:55:00
8:15 PM,38.8,30.2,71,29.87,10.0,Calm,Calm,-,N/A,,Clear,0,2013-01-19 02:15:00
8:35 PM,39.2,29.1,67,29.87,10.0,Calm,Calm,-,N/A,,Clear,0,2013-01-19 02:35:00
8:55 PM,37.0,29.1,73,29.87,10.0,Calm,Calm,-,N/A,,Clear,0,2013-01-19 02:55:00
9:15 PM,37.6,30.2,75,29.87,10.0,South,3.5,-,N/A,,Clear,190,2013-01-19 03:15:00
9:35 PM,36.3,28.9,75,29.86,10.0,SSW,3.5,-,N/A,,Clear,210,2013-01-19 03:35:00
9:55 PM,37.4,30.2,75,29.86,10.0,Calm,Calm,-,N/A,,Clear,0,2013-01-19 03:55:00
10:15 PM,37.8,30.2,74,29.85,10.0,Calm,Calm,-,N/A,,Clear,0,2013-01-19 04:15:00
10:35 PM,35.6,29.3,78,29.85,10.0,South,3.5,-,N/A,,Clear,190,2013-01-19 04:35:00
10:55 PM,33.8,27.9,79,29.84,10.0,SSW,3.5,-,N/A,,Clear,200,2013-01-19 04:55:00
11:15 PM,35.1,30.2,82,29.84,10.0,South,3.5,-,N/A,,Clear,180,2013-01-19 05:15:00
11:35 PM,36.3,30.4,79,29.83,10.0,South,3.5,-,N/A,,Clear,190,2013-01-19 05:35:00
11:55 PM,36.5,30.6,79,29.83,10.0,South,4.6,-,N/A,,Clear,180,2013-01-19 05:55:00